| time (UTC) | temp F | wind direction | speed MPH | gust MPH | rain 1hr in | rain 24hr in | rain mn in | humidity % | barometer mb |
| 20260510223044 | 41 | 0 | 0.0 | 1.0 | 0.00 | 0.00 | 0.00 | 80 | 1014.2 |
| 20260510221543 | 41 | 281 | 0.0 | 5.0 | 0.00 | 0.00 | 0.00 | 80 | 1014.2 |
| 20260510220042 | 42 | 16 | 0.0 | 1.0 | 0.00 | 0.00 | 0.00 | 80 | 1014.2 |
| 20260510214543 | 42 | 0 | 0.0 | 0.0 | 0.00 | 0.00 | 0.00 | 79 | 1014.2 |
| 20260510213044 | 43 | 0 | 0.0 | 0.0 | 0.00 | 0.00 | 0.00 | 77 | 1014.3 |
| 20260510211545 | 44 | 0 | 0.0 | 1.0 | 0.00 | 0.00 | 0.00 | 75 | 1014.3 |
| 20260510210039 | 45 | 0 | 0.0 | 0.0 | 0.00 | 0.00 | 0.00 | 70 | 1014.3 |
| 20260510204541 | 46 | 0 | 0.0 | 1.0 | 0.00 | 0.00 | 0.00 | 65 | 1014.2 |
| 20260510203043 | 47 | 0 | 0.0 | 1.0 | 0.00 | 0.00 | 0.00 | 63 | 1014.4 |
| 20260510201540 | 48 | 80 | 0.0 | 3.0 | 0.00 | 0.00 | 0.00 | 60 | 1014.2 |
| 20260510200108 | 49 | 78 | 0.0 | 4.0 | 0.00 | 0.00 | 0.00 | 59 | 1014.3 |
| 20260510194552 | 50 | 75 | 1.0 | 5.0 | 0.00 | 0.00 | 0.00 | 57 | 1014.3 |
| 20260510193045 | 51 | 70 | 2.0 | 5.0 | 0.00 | 0.00 | 0.00 | 55 | 1014.4 |
| 20260510191547 | 51 | 81 | 2.0 | 6.0 | 0.00 | 0.00 | 0.00 | 55 | 1014.5 |
| 20260510190040 | 52 | 80 | 3.0 | 10.0 | 0.00 | 0.00 | 0.00 | 53 | 1014.5 |
| 20260510184543 | 53 | 69 | 3.0 | 8.0 | 0.00 | 0.00 | 0.00 | 51 | 1014.6 |
| 20260510183046 | 53 | 82 | 3.0 | 8.0 | 0.00 | 0.00 | 0.00 | 50 | 1014.8 |
| 20260510181539 | 53 | 54 | 3.0 | 10.0 | 0.00 | 0.00 | 0.00 | 50 | 1014.5 |
| 20260510180039 | 55 | 70 | 5.0 | 10.0 | 0.00 | 0.00 | 0.00 | 48 | 1014.6 |
| 20260510174543 | 54 | 19 | 3.0 | 6.0 | 0.00 | 0.00 | 0.00 | 47 | 1014.7 |
| 20260510173051 | 56 | 325 | 3.0 | 12.0 | 0.00 | 0.00 | 0.00 | 46 | 1014.4 |
| 20260510171543 | 56 | 284 | 4.0 | 12.0 | 0.00 | 0.00 | 0.00 | 48 | 1014.5 |
| 20260510170038 | 55 | 90 | 1.0 | 9.0 | 0.00 | 0.00 | 0.00 | 50 | 1014.8 |
| 20260510164545 | 55 | 123 | 3.0 | 9.0 | 0.00 | 0.00 | 0.00 | 49 | 1015.1 |
| 20260510163046 | 55 | 57 | 6.0 | 14.0 | 0.00 | 0.00 | 0.00 | 48 | 1015.2 |
| 20260510161545 | 55 | 14 | 5.0 | 15.0 | 0.00 | 0.00 | 0.00 | 49 | 1015.4 |
| 20260510160048 | 56 | 78 | 7.0 | 12.0 | 0.00 | 0.00 | 0.00 | 48 | 1015.5 |
| 20260510154543 | 57 | 59 | 6.0 | 12.0 | 0.00 | 0.00 | 0.00 | 48 | 1015.8 |
| 20260510153042 | 56 | 68 | 5.0 | 14.0 | 0.00 | 0.00 | 0.00 | 47 | 1015.9 |
| 20260510151543 | 57 | 69 | 5.0 | 13.0 | 0.00 | 0.00 | 0.00 | 47 | 1016.0 |
| 20260510150050 | 57 | 348 | 5.0 | 16.0 | 0.00 | 0.00 | 0.00 | 49 | 1016.2 |
| 20260510144543 | 56 | 42 | 6.0 | 16.0 | 0.00 | 0.00 | 0.00 | 48 | 1016.4 |
| 20260510143040 | 57 | 104 | 6.0 | 17.0 | 0.00 | 0.00 | 0.00 | 50 | 1016.5 |
| 20260510141539 | 57 | 50 | 5.0 | 14.0 | 0.00 | 0.00 | 0.00 | 48 | 1016.7 |
| 20260510140037 | 57 | 80 | 6.0 | 19.0 | 0.00 | 0.00 | 0.00 | 51 | 1016.9 |
| 20260510134539 | 56 | 56 | 5.0 | 16.0 | 0.00 | 0.00 | 0.00 | 51 | 1016.8 |
| 20260510133049 | 55 | 73 | 8.0 | 18.0 | 0.00 | 0.00 | 0.00 | 54 | 1017.0 |
| 20260510131540 | 56 | 55 | 6.0 | 12.0 | 0.00 | 0.00 | 0.00 | 55 | 1017.0 |
| 20260510130041 | 55 | 74 | 7.0 | 15.0 | 0.00 | 0.00 | 0.00 | 57 | 1017.0 |
| 20260510124546 | 56 | 40 | 5.0 | 11.0 | 0.00 | 0.00 | 0.00 | 56 | 1017.5 |
| 20260510123057 | 55 | 92 | 5.0 | 15.0 | 0.00 | 0.00 | 0.00 | 58 | 1017.6 |
| 20260510121540 | 53 | 80 | 8.0 | 14.0 | 0.00 | 0.00 | 0.00 | 58 | 1017.8 |
| 20260510120040 | 53 | 51 | 6.0 | 15.0 | 0.00 | 0.00 | 0.00 | 62 | 1017.9 |
| 20260510114540 | 53 | 96 | 6.0 | 13.0 | 0.00 | 0.00 | 0.00 | 62 | 1018.1 |
| 20260510113044 | 53 | 124 | 6.0 | 13.0 | 0.00 | 0.00 | 0.00 | 66 | 1018.2 |
| 20260510111544 | 52 | 54 | 8.0 | 17.0 | 0.00 | 0.00 | 0.00 | 65 | 1018.4 |
| 20260510110042 | 52 | 76 | 9.0 | 18.0 | 0.00 | 0.00 | 0.00 | 67 | 1018.6 |
| 20260510104542 | 52 | 52 | 6.0 | 16.0 | 0.00 | 0.00 | 0.00 | 68 | 1018.7 |
| 20260510103042 | 51 | 51 | 6.0 | 14.0 | 0.00 | 0.00 | 0.00 | 70 | 1018.6 |
| 20260510101540 | 50 | 101 | 5.0 | 15.0 | 0.00 | 0.00 | 0.00 | 71 | 1018.7 |
| 20260510100044 | 50 | 100 | 6.0 | 16.0 | 0.00 | 0.00 | 0.00 | 72 | 1018.9 |
| 20260510094541 | 49 | 88 | 9.0 | 17.0 | 0.00 | 0.00 | 0.00 | 73 | 1018.9 |
| 20260510093039 | 49 | 86 | 4.0 | 15.0 | 0.00 | 0.00 | 0.00 | 75 | 1019.1 |
| 20260510091542 | 49 | 49 | 6.0 | 16.0 | 0.00 | 0.00 | 0.00 | 75 | 1019.1 |
| 20260510090040 | 49 | 80 | 4.0 | 13.0 | 0.00 | 0.00 | 0.00 | 76 | 1019.2 |
| 20260510084540 | 48 | 59 | 4.0 | 13.0 | 0.00 | 0.00 | 0.00 | 77 | 1019.3 |
| 20260510083041 | 48 | 72 | 6.0 | 15.0 | 0.00 | 0.00 | 0.00 | 78 | 1019.3 |
| 20260510081545 | 47 | 76 | 6.0 | 16.0 | 0.00 | 0.00 | 0.00 | 79 | 1019.3 |
| 20260510080041 | 47 | 104 | 5.0 | 16.0 | 0.00 | 0.00 | 0.00 | 81 | 1019.3 |
| 20260510074540 | 46 | 44 | 5.0 | 14.0 | 0.00 | 0.00 | 0.00 | 82 | 1019.2 |
| 20260510073103 | 46 | 51 | 4.0 | 12.0 | 0.00 | 0.00 | 0.00 | 83 | 1019.2 |
| 20260510071548 | 46 | 75 | 5.0 | 12.0 | 0.00 | 0.00 | 0.00 | 84 | 1019.2 |
| 20260510070045 | 46 | 80 | 6.0 | 14.0 | 0.00 | 0.00 | 0.00 | 84 | 1019.2 |
| 20260510064549 | 46 | 75 | 6.0 | 16.0 | 0.00 | 0.00 | 0.00 | 85 | 1019.3 |
| 20260510063043 | 46 | 73 | 5.0 | 10.0 | 0.00 | 0.00 | 0.00 | 85 | 1019.2 |
| 20260510061540 | 46 | 59 | 5.0 | 14.0 | 0.00 | 0.00 | 0.00 | 86 | 1019.2 |
| 20260510060041 | 46 | 87 | 7.0 | 17.0 | 0.00 | 0.00 | 0.00 | 86 | 1019.0 |
| 20260510054540 | 46 | 64 | 5.0 | 12.0 | 0.00 | 0.00 | 0.00 | 86 | 1018.9 |
| 20260510053041 | 47 | 44 | 3.0 | 12.0 | 0.00 | 0.00 | 0.00 | 86 | 1019.0 |
| 20260510051544 | 47 | 77 | 5.0 | 11.0 | 0.00 | 0.00 | 0.00 | 87 | 1019.0 |
| 20260510050043 | 47 | 82 | 7.0 | 14.0 | 0.00 | 0.00 | 0.00 | 87 | 1018.9 |
| 20260510044548 | 47 | 89 | 5.0 | 12.0 | 0.00 | 0.00 | 0.00 | 88 | 1018.9 |
| 20260510043041 | 47 | 53 | 4.0 | 12.0 | 0.00 | 0.00 | 0.00 | 88 | 1018.9 |
| 20260510041541 | 47 | 34 | 4.0 | 9.0 | 0.00 | 0.00 | 0.00 | 89 | 1018.8 |
| 20260510040049 | 47 | 58 | 5.0 | 11.0 | 0.00 | 0.00 | 0.00 | 89 | 1018.9 |
| 20260510034545 | 47 | 344 | 6.0 | 11.0 | 0.00 | 0.00 | 0.00 | 90 | 1019.0 |
| 20260510033042 | 47 | 61 | 3.0 | 12.0 | 0.00 | 0.00 | 0.00 | 90 | 1018.9 |
| 20260510031550 | 47 | 61 | 2.0 | 10.0 | 0.00 | 0.00 | 0.00 | 90 | 1019.2 |
| 20260510030039 | 47 | 66 | 4.0 | 11.0 | 0.00 | 0.00 | 0.00 | 90 | 1019.3 |
| 20260510024657 | 47 | 90 | 5.0 | 12.0 | 0.00 | 0.00 | 0.00 | 90 | 1019.3 |
| 20260510023038 | 47 | 49 | 8.0 | 13.0 | 0.00 | 0.00 | 0.00 | 91 | 1019.4 |
| 20260510021540 | 47 | 81 | 7.0 | 12.0 | 0.00 | 0.00 | 0.00 | 91 | 1019.6 |
| 20260510020036 | 47 | 65 | 5.0 | 12.0 | 0.00 | 0.00 | 0.00 | 91 | 1019.7 |
| 20260510014545 | 47 | 39 | 4.0 | 13.0 | 0.00 | 0.00 | 0.00 | 91 | 1019.8 |
| 20260510013041 | 48 | 85 | 4.0 | 15.0 | 0.00 | 0.00 | 0.00 | 90 | 1019.7 |
| 20260510011539 | 48 | 79 | 8.0 | 14.0 | 0.00 | 0.00 | 0.00 | 89 | 1019.5 |
| 20260510010039 | 48 | 48 | 4.0 | 14.0 | 0.00 | 0.00 | 0.00 | 89 | 1019.2 |
| 20260510004540 | 49 | 18 | 7.0 | 15.0 | 0.00 | 0.00 | 0.00 | 86 | 1019.0 |
| 20260510003046 | 50 | 75 | 5.0 | 13.0 | 0.00 | 0.00 | 0.00 | 85 | 1018.9 |
| 20260510001554 | 50 | 58 | 5.0 | 14.0 | 0.00 | 0.00 | 0.00 | 87 | 1019.1 |
| 20260510000039 | 50 | 68 | 5.0 | 11.0 | 0.00 | 0.00 | 0.00 | 86 | 1019.1 |
| 20260509234537 | 50 | 360 | 3.0 | 12.0 | 0.00 | 0.00 | 0.00 | 86 | 1019.4 |
| 20260509233051 | 50 | 24 | 4.0 | 11.0 | 0.00 | 0.00 | 0.00 | 85 | 1019.4 |
| 20260509231539 | 50 | 46 | 4.0 | 11.0 | 0.00 | 0.00 | 0.00 | 85 | 1019.4 |
| 20260509230040 | 50 | 83 | 4.0 | 15.0 | 0.00 | 0.00 | 0.00 | 85 | 1019.2 |
| 20260509224549 | 50 | 66 | 5.0 | 12.0 | 0.00 | 0.00 | 0.00 | 86 | 1019.2 |